W1LP-13 Weather Reports


time (UTC)temp
F
wind
direction
speed
knots
gust
knots
rain 1hr
in
rain 24hr
in
rain mn
in
humidity
%
barometer
mb
20260507203009 61 235 1.7 7.0 0.00 0.44 0.33 57 1002.2
20260507201506 62 147 2.6 9.6 0.00 0.44 0.33 56 1002.2
20260507200003 62 211 1.7 6.1 0.00 0.44 0.33 62 1002.1
20260507194559 61 221 3.5 7.0 0.00 0.44 0.33 65 1002.5
20260507193055 62 234 2.6 7.8 0.00 0.44 0.33 65 1002.5
20260507191556 63 99 0.9 3.5 0.00 0.44 0.33 66 1002.8
20260507190054 62 316 0.9 3.5 0.00 0.44 0.33 65 1003.0
20260507184551 64 30 1.7 4.3 0.00 0.44 0.33 63 1003.1
20260507183045 61 63 0.9 8.7 0.00 0.44 0.33 64 1003.3
20260507181543 60 101 0.9 3.5 0.00 0.44 0.33 65 1003.6
20260507180042 61 115 1.7 3.5 0.00 0.44 0.33 61 1003.5
20260507174545 61 43 0.9 5.2 0.00 0.44 0.33 62 1003.9
20260507173038 59 85 0.9 3.5 0.00 0.44 0.33 65 1003.9
20260507171539 61 138 0.9 5.2 0.00 0.44 0.33 60 1003.9
20260507170044 63 9 1.7 5.2 0.00 0.44 0.33 62 1004.2
20260507164536 62 9 1.7 7.0 0.00 0.44 0.33 64 1004.3
20260507163034 63 24 0.9 4.3 0.00 0.44 0.33 63 1004.4
20260507161532 63 48 0.9 5.2 0.00 0.44 0.33 64 1004.5
20260507160033 60 355 1.7 4.3 0.00 0.44 0.33 73 1004.8
20260507154529 59 19 1.7 7.0 0.00 0.44 0.33 75 1004.8
20260507153027 60 330 1.7 7.8 0.00 0.44 0.33 77 1005.0
20260507151522 58 317 1.7 5.2 0.00 0.44 0.33 82 1005.2
20260507150019 53 5 2.6 6.1 0.00 0.44 0.33 89 1005.0
20260507144518 51 250 0.9 2.6 0.00 0.44 0.33 89 1005.1
20260507143019 51 265 1.7 7.0 0.00 0.44 0.33 93 1005.2
20260507141516 49 290 1.7 7.0 0.00 0.44 0.33 95 1005.2
20260507140016 49 299 2.6 7.8 0.00 0.44 0.33 96 1005.1
20260507134514 49 294 0.9 4.3 0.00 0.44 0.33 98 1005.3
20260507133014 49 325 1.7 4.3 0.01 0.44 0.33 98 1005.3
20260507131519 48 284 1.7 3.5 0.02 0.44 0.33 98 1004.9
20260507130012 47 279 0.9 3.5 0.02 0.44 0.33 97 1005.3
20260507124512 46 280 1.7 4.3 0.03 0.44 0.33 97 1005.5
20260507123011 46 291 0.9 7.0 0.03 0.43 0.32 97 1005.4
20260507121509 48 360 2.6 7.0 0.02 0.42 0.31 98 1005.1
20260507120022 48 275 0.9 4.3 0.03 0.42 0.31 97 1005.0
20260507114505 48 288 2.6 7.8 0.03 0.41 0.30 97 1005.1
20260507113005 48 310 1.7 9.6 0.02 0.40 0.28 97 1005.7
20260507111501 48 304 1.7 8.7 0.03 0.40 0.28 98 1004.6
20260507110111 49 298 1.7 7.8 0.03 0.39 0.28 98 1004.5
20260507104557 49 302 1.7 6.1 0.03 0.38 0.27 97 1004.6
20260507103055 49 287 1.7 7.8 0.05 0.38 0.27 98 1004.3
20260507101603 49 306 1.7 8.7 0.06 0.37 0.26 97 1004.0
20260507100051 50 340 1.7 5.2 0.06 0.36 0.25 97 1004.2
20260507094548 52 338 1.7 6.1 0.08 0.35 0.24 98 1003.6
20260507093053 52 273 2.6 8.7 0.17 0.33 0.22 98 1003.9
20260507091550 52 221 0.0 2.6 0.20 0.31 0.20 98 1003.3
20260507090045 51 222 0.9 2.6 0.19 0.30 0.19 98 1004.0
20260507084543 52 223 0.9 5.2 0.15 0.26 0.15 98 1004.1
20260507083042 52 223 0.9 5.2 0.05 0.16 0.05 98 1004.0
20260507081547 52 188 0.0 2.6 0.00 0.11 0.00 98 1002.9
20260507080039 52 188 0.0 2.6 0.00 0.11 0.00 98 1002.8
20260507074554 52 205 0.0 2.6 0.00 0.11 0.00 98 1002.9
20260507073037 52 205 0.9 2.6 0.00 0.11 0.00 98 1003.3
20260507071536 52 205 0.9 2.6 0.00 0.11 0.00 98 1003.2
20260507070035 52 207 0.9 2.6 0.00 0.11 0.00 98 1003.5
20260507064534 52 207 0.9 3.5 0.00 0.11 0.00 98 1003.3
20260507063034 52 210 1.7 4.3 0.00 0.11 0.00 98 1003.0
20260507061533 52 230 2.6 7.0 0.00 0.11 0.00 97 1003.6
20260507060030 52 204 1.7 7.0 0.00 0.11 0.00 97 1003.4
20260507054527 53 156 2.6 7.0 0.00 0.11 0.00 97 1003.8
20260507053026 53 188 3.5 8.7 0.00 0.11 0.00 97 1004.0
20260507051525 53 227 4.3 13.0 0.00 0.11 0.00 97 1004.1
20260507050026 53 199 2.6 9.6 0.00 0.11 0.00 97 1004.3
20260507044519 53 199 3.5 9.6 0.00 0.11 0.00 97 1004.2
20260507043018 53 219 3.5 11.3 0.00 0.11 0.00 97 1004.3
20260507041515 53 211 4.3 12.2 0.00 0.11 0.00 97 1004.5
20260507040013 54 213 3.5 12.2 0.00 0.11 0.11 97 1004.6
20260507034508 54 225 5.2 12.2 0.00 0.11 0.11 97 1004.7
20260507033016 55 205 3.5 8.7 0.00 0.11 0.11 97 1004.6
20260507031507 55 205 3.5 12.2 0.00 0.11 0.11 97 1004.5
20260507030007 55 188 5.2 9.6 0.00 0.11 0.11 97 1004.2
20260507024503 55 185 4.3 12.2 0.00 0.11 0.11 97 1004.5
20260507023107 55 195 5.2 13.0 0.00 0.11 0.11 97 1004.9
20260507021602 56 186 4.3 10.4 0.00 0.11 0.11 96 1004.9
20260507020100 56 205 5.2 8.7 0.00 0.11 0.11 96 1005.1
20260507014603 57 194 6.1 18.2 0.00 0.11 0.11 96 1005.1
20260507013054 57 360 5.2 14.8 0.01 0.11 0.11 97 1005.3
20260507011553 57 174 4.3 13.0 0.01 0.11 0.11 97 1005.2
20260507010057 58 212 3.5 13.0 0.02 0.11 0.11 97 1005.2
20260507004552 57 229 4.3 7.8 0.03 0.11 0.11 97 1005.2
20260507003052 57 169 5.2 9.6 0.05 0.10 0.10 97 1005.1
20260507001554 57 160 3.5 7.8 0.07 0.10 0.10 97 1005.1
20260507000049 56 360 3.5 8.7 0.08 0.09 0.09 96 1005.0
20260506234549 56 360 3.5 8.7 0.07 0.07 0.07 95 1004.9
20260506233055 57 188 3.5 16.5 0.05 0.05 0.05 95 1005.0
20260506231543 57 194 4.3 11.3 0.03 0.03 0.03 94 1005.4
20260506230040 58 175 3.5 9.6 0.01 0.01 0.01 93 1005.7
20260506224539 58 213 4.3 15.6 0.00 0.00 0.00 91 1005.7
20260506223038 59 360 5.2 12.2 0.00 0.00 0.00 88 1005.7
20260506221538 61 187 4.3 13.9 0.00 0.00 0.00 84 1005.7
20260506220038 61 175 4.3 10.4 0.00 0.00 0.00 82 1005.4
20260506214536 61 360 3.5 13.0 0.00 0.00 0.00 82 1005.7
20260506213035 61 180 3.5 17.4 0.00 0.00 0.00 82 1006.0
20260506211535 61 188 7.0 15.6 0.00 0.00 0.00 81 1006.1
20260506210033 62 184 4.3 9.6 0.00 0.00 0.00 80 1006.0
20260506204531 62 360 4.3 11.3 0.00 0.00 0.00 79 1006.1